HST 1 20580U 90037B 25106.65942011 .00010154 00000-0 39313-3 0 9999 2 20580 28.4667 101.7441 0002207 134.7568 225.3206 15.24471247723282 ISS (ZARYA) 1 25544U 98067A 25107.19488923 .00019745 00000-0 35760-3 0 9999 2 25544 51.6366 249.1302 0005231 48.5635 311.5802 15.49628767505704 CXO 1 25867U 99040B 25108.61304746 .00000973 00000-0 00000-0 0 9996 2 25867 48.1491 132.6945 8512217 308.4397 0.0724 0.37804094 15719